User: anonymous   Login
Location: Unspecified
(0.0000°N, 0.0000°E)
Time: 19:15:01
(UTC+00:00)
Language:

JUGNU - Orbit

View from above orbital plane
View from above orbital plane
View from above satellite
View from above satellite

Ground track
Ground track

The orbit data is extracted from the following two-line orbital elements,

1 37839U 11058B   19341.16315434  .00000304  00000-0  20447-4 0  9998
2 37839  19.9626  14.9416 0019152  57.7378 342.8463 14.12666228421538
Epoch (UTC): 07 December 2019 03:54:56
Eccentricity: 0.0019152
inclination: 19.9626°
perigee height: 836 km
apogee height: 864 km
right ascension of ascending node: 14.9416°
argument of perigee: 57.7378°
revolutions per day: 14.12666228
mean anomaly at epoch: 342.8463°
orbit number at epoch: 42153

The dashed part of the orbit path shows where the satellite is in the earth's shadow,  

DLR